Regional Weather Roundup
Issued by NWS

Home | Current Version | Previous Version | Graphics & Text | Print | Product List | Glossary On
Versions: 1 2 3 4 5 6 7 8 9 10 11 12 13 14 15 16 17 18 19 20 21 22 23 24 25 26 27 28 29 30 31 32 33 34 35 36 37 38 39 40 41 42 43 44 45 46 47 48 49 50
000
ASUS45 KCYS 221410
RWRWY

WYOMING REGIONAL WEATHER ROUNDUP
NATIONAL WEATHER SERVICE CHEYENNE WY
800 AM MDT FRI MAY 22 2015

NOTE:  "FAIR" INDICATES FEW OR NO CLOUDS BELOW 12,000 FEET
WITH NO SIGNIFICANT WEATHER AND/OR OBSTRUCTIONS TO VISIBILITY.

WYZ001-221500-
YELLOWSTONE NATIONAL PARK

CITY           SKY/WX    TMP DP  RH WIND       PRES   REMARKS
LK YELLOWSTONE   N/A     40  35  83 CALM      30.06S
W YELLOWSTONE  NOT AVBL

$$
WYZ002>013-054>058-071-098>099-221500-
NORTHERN WYOMING

CITY           SKY/WX    TMP DP  RH WIND       PRES   REMARKS
JACKSON        PTSUNNY   45  43  93 CALM      30.01S
CODY           FAIR      50  43  76 CALM      29.98R
GREYBULL       FAIR      52  46  80 E5        29.94S
WORLAND        CLOUDY    52  47  83 NE3       29.94S
SHERIDAN       FAIR      50  44  80 NW3       29.97S
BUFFALO        PTSUNNY   50  45  83 SE12      29.99S
GILLETTE       CLOUDY    50  45  83 SE13      30.02S
HULETT         FAIR      54  43  66 E10       30.07S
NEWCASTLE      FAIR      52  43  71 SE14G23   30.07R

$$
WYZ014>020-022>026-101>103-221500-
CENTRAL WYOMING

CITY           SKY/WX    TMP DP  RH WIND       PRES   REMARKS
BIG PINEY      CLOUDY    46  39  76 CALM      30.02
PINEDALE       FAIR      43  43 100 W5        30.03S
DUBOIS         CLOUDY    43  37  81 NW6       30.02S
LANDER         CLOUDY    49  42  77 CALM      29.98R
RIVERTON       CLOUDY    47  43  86 NE3       29.99
CASPER         CLOUDY    48  43  82 NE5       29.99
DOUGLAS        CLOUDY    48  44  86 SE17      30.03R

$$
WYZ021-027>030-104>119-221500-
SOUTHERN WYOMING

CITY           SKY/WX    TMP DP  RH WIND       PRES   REMARKS
EVANSTON       PTSUNNY   41  38  89 CALM      30.00
KEMMERER       FAIR      41  37  87 CALM      30.02S
FORT BRIDGER   PTSUNNY   43  43 100 N5        30.03S
ROCK SPRINGS   CLOUDY    44  40  85 NE6       30.00R
DIXON          RAIN      47  43  86 SE5       30.03R
RAWLINS        CLOUDY    45  41  86 CALM      30.01R
SARATOGA       DRIZZLE   43  41  93 S3        30.02R
LARAMIE        CLOUDY    42  39  89 SE15      30.01S
CHEYENNE       RAIN      42  41  96 SE16      30.04R FOG
TORRINGTON     CLOUDY    47  44  90 SE12      30.05R
PINE BLUFFS    LGT RAIN  43  43 100 SE15      30.07S

$$


USA.gov is the U.S. government's official web portal to all federal, state and local government web resources and services.